Lid_Strength_Index
10 11 10 10 11 11 11 11 10 10 8 7 7 6 5 4 4 3 0 0 0 1 0 0 1 1 1 2 2 2 2 2
11 11 11 11 11 11 11 11 11 10 9 8 7 5 4 2 2 2 0 1 1 0 0 1 1 1 1 2 1 2 2 2
12 12 12 12 12 12 12 12 11 11 10 9 8 7 6 5 4 1 4 5 5 6 6 7 7 6 6 5 5 5 6 6
12 13 13 13 13 13 13 13 12 11 11 11 10 9 9 8 7 6 7 8 8 9 9 10 10 9 8 8 8 8 8 8
13 13 13 13 13 13 13 13 12 12 12 12 11 11 10 9 9 9 9 9 10 11 11 11 11 11 10 10 10 10 10 10
14 14 14 14 13 13 13 13 13 13 12 12 12 12 11 11 11 11 11 11 11 11 11 11 11 11 11 11 10 11 11 11
13 14 15 15 14 13 13 13 12 13 13 12 12 12 12 12 12 11 12 12 11 12 12 12 12 11 11 10 11 11 11 12
13 14 15 15 14 13 13 13 12 13 13 12 12 13 13 13 12 13 13 13 14 13 12 13 12 12 12 12 12 12 13 13
12 13 13 13 14 13 13 13 13 12 13 12 12 13 13 14 14 14 14 14 14 13 13 13 12 13 13 12 12 12 12 12
11 12 12 13 13 13 13 13 14 14 13 13 13 14 13 14 14 14 14 15 15 15 14 13 13 12 12 12 12 11 11 11
11 12 12 12 12 13 14 14 14 14 14 13 13 14 15 14 15 15 14 15 15 14 13 13 12 11 11 11 11 12 12 11
11 12 12 13 13 14 14 15 15 14 14 14 13 14 14 13 13 13 13 13 13 14 14 13 12 12 11 11 12 12 12 13
12 12 13 14 14 14 14 15 14 13 14 14 13 13 13 13 14 13 13 13 14 13 13 13 13 12 12 12 12 12 13 14
13 14 15 16 16 14 16 16 14 13 15 14 14 13 13 12 13 13 13 13 14 14 14 14 13 12 12 13 13 14 14 14
14 15 15 17 17 16 17 17 14 14 14 14 14 14 13 13 13 13 13 14 14 14 14 14 14 14 13 13 14 15 15 16
14 14 15 16 17 18 19 17 14 14 14 14 14 14 14 14 13 13 13 14 14 14 15 15 15 15 14 14 14 14 16 18
15 15 15 17 17 19 21 18 15 14 14 14 14 14 15 14 15 14 14 14 14 14 14 15 15 15 15 15 15 16 17 17
15 15 15 16 18 19 21 17 15 14 14 14 14 14 15 16 14 16 16 15 15 16 15 15 15 16 16 16 17 17 18 18
14 15 16 17 18 19 20 17 15 14 14 14 14 14 16 16 16 16 15 16 17 19 18 17 17 17 18 18 18 18 20 21
15 16 17 18 17 19 20 17 16 14 14 14 14 14 15 17 18 17 18 17 17 19 19 21 18 19 20 20 19 20 21 22